User: anonymous   Login
Location: Unspecified
(0.0000°N, 0.0000°E)
Time: 06:53:21
(UTC+00:00)
Language:

NOAA 19 - Orbit

View from above orbital plane
View from above orbital plane
View from above satellite
View from above satellite

Ground track
Ground track

The orbit data is extracted from the following two-line orbital elements,

1 33591U 09005A   19078.58488035 +.00000030 +00000-0 +41453-4 0  9995
2 33591 099.1748 067.5291 0012968 274.5926 085.3763 14.12339699520783
Epoch (UTC): 19 March 2019 14:02:13
Eccentricity: 0.0012968
inclination: 99.1748°
perigee height: 842 km
apogee height: 861 km
right ascension of ascending node: 67.5291°
argument of perigee: 274.5926°
revolutions per day: 14.12339699
mean anomaly at epoch: 85.3763°
orbit number at epoch: 52078

The dashed part of the orbit path shows where the satellite is in the earth's shadow,  

DLR